EW5196 Weather Reports


Display with metric or nautical units.
time (UTC)temp
F
wind
direction
speed
MPH
gust
MPH
rain 1hr
in
rain 24hr
in
rain mn
in
humidity
%
barometer
mb
20260503192506 64 153 4.0 5.0 0.00 0.00 0.00 29 1018.1
20260503192002 64 79 3.0 3.0 0.00 0.00 0.00 30 1018.1
20260503191459 64 174 2.0 5.0 0.00 0.00 0.00 26 1018.3
20260503190955 64 131 5.0 5.0 0.00 0.00 0.00 27 1018.4
20260503190453 64 183 5.0 5.0 0.00 0.00 0.00 27 1018.4
20260503185950 64 78 2.0 8.0 0.00 0.00 0.00 26 1018.2
20260503185446 64 137 4.0 5.0 0.00 0.00 0.00 28 1018.5
20260503184946 63 230 5.0 6.0 0.00 0.00 0.00 29 1018.7
20260503184443 63 117 6.0 7.0 0.00 0.00 0.00 28 1018.4
20260503183939 62 146 3.0 11.0 0.00 0.00 0.00 28 1018.5
20260503183435 62 144 5.0 5.0 0.00 0.00 0.00 27 1018.6
20260503182933 62 126 4.0 7.0 0.00 0.00 0.00 28 1018.9
20260503182431 62 122 2.0 4.0 0.00 0.00 0.00 30 1018.8
20260503181929 61 172 2.0 3.0 0.00 0.00 0.00 30 1018.6
20260503181426 61 136 5.0 7.0 0.00 0.00 0.00 29 1018.9
20260503180921 61 151 2.0 5.0 0.00 0.00 0.00 30 1019.0
20260503180420 62 114 4.0 6.0 0.00 0.00 0.00 31 1018.8
20260503175916 61 118 3.0 5.0 0.00 0.00 0.00 32 1018.8
20260503175414 60 88 4.0 5.0 0.00 0.00 0.00 33 1018.8
20260503174910 61 114 4.0 8.0 0.00 0.00 0.00 31 1018.8
20260503174408 60 178 3.0 5.0 0.00 0.00 0.00 31 1018.8
20260503173903 60 163 3.0 5.0 0.00 0.00 0.00 30 1019.1
20260503173359 59 186 7.0 7.0 0.00 0.00 0.00 30 1018.9
20260503172856 60 246 2.0 6.0 0.00 0.00 0.00 28 1019.1
20260503172353 59 191 2.0 4.0 0.00 0.00 0.00 31 1018.9
20260503171849 59 123 4.0 5.0 0.00 0.00 0.00 32 1018.9
20260503171346 59 49 5.0 5.0 0.00 0.00 0.00 30 1018.9
20260503170844 59 131 5.0 6.0 0.00 0.00 0.00 31 1019.0
20260503170340 58 60 3.0 4.0 0.00 0.00 0.00 32 1019.0
20260503150732 55 161 3.0 4.0 0.00 0.00 0.00 34 1020.3
20260503150229 55 129 3.0 4.0 0.00 0.00 0.00 35 1020.5
20260503140153 53 139 7.0 9.0 0.00 0.00 0.00 33 1020.3
20260503131122 51 165 5.0 11.0 0.00 0.00 0.00 42 1020.2
20260503130620 50 240 4.0 9.0 0.00 0.00 0.00 44 1020.0
20260503130118 50 144 6.0 6.0 0.00 0.00 0.00 45 1020.2
20260503110510 39 123 2.0 4.0 0.00 0.00 0.00 88 1019.1
20260503090350 45 154 2.0 3.0 0.00 0.00 0.00 67 1017.3
20260503081317 48 159 2.0 5.0 0.00 0.00 0.00 56 1016.8
20260503080813 48 155 3.0 5.0 0.00 0.00 0.00 55 1016.7
20260503080311 49 141 1.0 4.0 0.00 0.00 0.00 55 1016.7
20260503072747 50 180 1.0 3.0 0.00 0.00 0.00 54 1016.4
20260503072244 50 178 3.0 4.0 0.00 0.00 0.00 53 1016.4
20260503071740 50 130 2.0 3.0 0.00 0.00 0.00 53 1016.2
20260503071238 50 140 2.0 5.0 0.00 0.00 0.00 52 1016.1
20260503070734 50 137 3.0 4.0 0.00 0.00 0.00 52 1016.1
20260503070232 50 134 2.0 7.0 0.00 0.00 0.00 52 1016.0
20260503060151 52 107 3.0 7.0 0.00 0.00 0.00 52 1015.5
20260503054638 52 145 1.0 4.0 0.00 0.00 0.00 54 1015.1
20260503054135 52 175 3.0 6.0 0.00 0.00 0.00 52 1015.5
20260503053633 52 171 3.0 5.0 0.00 0.00 0.00 53 1015.4
20260503053132 52 175 4.0 4.0 0.00 0.00 0.00 53 1015.5
20260503052627 52 140 2.0 3.0 0.00 0.00 0.00 55 1015.7
20260503052124 52 171 2.0 3.0 0.00 0.00 0.00 54 1015.6
20260503051619 52 167 2.0 5.0 0.00 0.00 0.00 55 1015.6
20260503051117 52 91 1.0 5.0 0.00 0.00 0.00 57 1015.5
20260503050614 52 155 2.0 4.0 0.00 0.00 0.00 58 1015.5
20260503050110 51 166 2.0 3.0 0.00 0.00 0.00 60 1015.4
20260503045608 51 161 3.0 4.0 0.00 0.00 0.00 64 1015.5
20260503045105 51 115 3.0 3.0 0.00 0.00 0.00 60 1015.4
20260503044601 51 142 2.0 3.0 0.00 0.00 0.00 65 1015.6
20260503044059 51 166 3.0 5.0 0.00 0.00 0.00 65 1015.3
20260503043555 51 139 3.0 3.0 0.00 0.00 0.00 69 1015.3
20260503043052 51 161 3.0 3.0 0.00 0.00 0.00 72 1015.3
20260503042549 50 137 2.0 3.0 0.00 0.00 0.00 74 1015.3
20260503042045 50 134 2.0 4.0 0.00 0.00 0.00 78 1015.1
20260503041542 50 161 2.0 2.0 0.00 0.00 0.00 79 1015.3
20260503041040 50 150 2.0 3.0 0.00 0.00 0.00 77 1015.2
20260503040537 50 142 2.0 2.0 0.00 0.00 0.00 79 1015.3
20260503040034 50 152 2.0 2.0 0.00 0.04 0.04 78 1015.1
20260503035531 50 144 2.0 3.0 0.00 0.04 0.04 81 1015.2
20260503035028 51 139 3.0 4.0 0.00 0.04 0.04 80 1015.1
20260503034525 50 116 2.0 2.0 0.00 0.04 0.04 77 1015.5
20260503034022 50 146 2.0 2.0 0.00 0.04 0.04 80 1015.3
20260503033520 50 145 2.0 3.0 0.00 0.04 0.04 80 1015.3
20260503033018 51 145 2.0 2.0 0.00 0.04 0.04 80 1015.3
20260503032516 51 137 2.0 3.0 0.00 0.04 0.04 80 1015.1
20260503032014 51 151 2.0 3.0 0.00 0.04 0.04 81 1015.4
20260503031511 51 142 2.0 3.0 0.00 0.04 0.04 79 1015.1
20260503031008 51 155 2.0 2.0 0.00 0.04 0.04 80 1015.2
20260503030504 51 138 2.0 3.0 0.00 0.04 0.04 81 1015.2
20260503030001 51 124 2.0 2.0 0.00 0.04 0.04 83 1015.1
20260503025458 51 134 2.0 2.0 0.00 0.04 0.04 81 1015.1
20260503024956 52 143 2.0 3.0 0.00 0.04 0.04 80 1015.1
20260503024451 52 139 2.0 2.0 0.00 0.04 0.04 75 1015.3
20260503023949 52 161 3.0 3.0 0.00 0.04 0.04 74 1015.2
20260503023446 52 151 2.0 3.0 0.00 0.04 0.04 74 1015.3
20260503022943 52 143 2.0 3.0 0.00 0.04 0.04 75 1015.3
20260503022437 52 150 3.0 3.0 0.00 0.04 0.04 75 1015.3
20260503021934 52 142 2.0 3.0 0.00 0.04 0.04 75 1015.2
20260503021430 52 149 2.0 3.0 0.00 0.04 0.04 75 1014.9
20260503020928 52 140 2.0 3.0 0.00 0.04 0.04 74 1015.2
20260503020425 52 148 2.0 3.0 0.00 0.04 0.04 71 1015.2
20260503015921 52 139 2.0 3.0 0.00 0.04 0.04 70 1015.1
20260503015418 52 122 2.0 2.0 0.00 0.04 0.04 70 1015.2
20260503014914 52 150 2.0 3.0 0.00 0.04 0.04 70 1014.9
20260503014412 52 161 2.0 3.0 0.00 0.04 0.04 72 1015.2
20260503013910 52 149 2.0 2.0 0.00 0.04 0.04 73 1015.2
20260503013406 52 148 3.0 3.0 0.00 0.04 0.04 74 1015.2
20260503012903 52 145 2.0 3.0 0.00 0.04 0.04 74 1014.9
20260503012401 52 145 2.0 3.0 0.00 0.04 0.04 72 1015.0
20260503011857 52 148 2.0 2.0 0.00 0.04 0.04 73 1014.9
20260503011355 52 144 3.0 3.0 0.00 0.04 0.04 75 1014.9
20260503010851 53 124 2.0 2.0 0.00 0.04 0.04 74 1014.9
20260503010348 53 144 2.0 3.0 0.00 0.04 0.04 69 1014.7
20260503005845 53 147 2.0 2.0 0.00 0.04 0.04 70 1014.7
20260503005343 53 142 2.0 2.0 0.00 0.04 0.04 69 1014.7
20260503004838 53 144 3.0 3.0 0.00 0.04 0.04 69 1014.6
20260503004336 54 144 2.0 3.0 0.00 0.04 0.04 67 1014.5
20260503003833 54 131 2.0 2.0 0.00 0.04 0.04 65 1014.4
20260503003330 54 160 2.0 3.0 0.00 0.04 0.04 65 1014.5
20260503002827 54 154 2.0 3.0 0.00 0.04 0.04 65 1014.3
20260503002324 54 141 3.0 3.0 0.00 0.04 0.04 65 1014.1
20260503001820 54 135 2.0 3.0 0.00 0.04 0.04 63 1014.1
20260503001317 55 144 2.0 3.0 0.00 0.04 0.04 62 1014.2
20260503000815 55 140 2.0 2.0 0.00 0.04 0.04 62 1014.3
20260503000312 55 147 3.0 3.0 0.00 0.04 0.04 59 1014.0
20260502235809 55 138 2.0 2.0 0.00 0.04 0.04 58 1013.9
20260502235306 56 159 2.0 3.0 0.00 0.04 0.04 57 1013.9
20260502234803 56 140 2.0 3.0 0.00 0.04 0.04 54 1013.7
20260502234300 57 136 2.0 3.0 0.00 0.04 0.04 49 1013.7
20260502233756 57 141 2.0 2.0 0.00 0.04 0.04 48 1013.5
20260502233253 58 133 2.0 2.0 0.00 0.04 0.04 48 1013.5
20260502232749 58 122 2.0 3.0 0.00 0.04 0.04 49 1013.7
20260502232246 59 150 2.0 2.0 0.00 0.04 0.04 42 1013.2
20260502231742 59 175 3.0 5.0 0.00 0.04 0.04 43 1013.3
20260502231240 59 147 2.0 3.0 0.00 0.04 0.04 41 1013.4
20260502230739 59 147 2.0 2.0 0.00 0.04 0.04 42 1013.4
20260502230236 59 128 3.0 3.0 0.00 0.04 0.04 40 1013.3
20260502225732 59 167 3.0 5.0 0.00 0.04 0.04 41 1013.1
20260502225230 59 140 2.0 4.0 0.00 0.04 0.04 42 1013.1
20260502224726 59 152 1.0 4.0 0.00 0.04 0.04 40 1012.9
20260502224223 59 218 2.0 6.0 0.00 0.04 0.04 40 1012.9
20260502223720 60 208 2.0 5.0 0.00 0.04 0.04 39 1013.0
20260502223218 60 133 3.0 5.0 0.00 0.04 0.04 39 1013.0
20260502222716 60 188 3.0 3.0 0.00 0.04 0.04 40 1013.0
20260502222212 60 205 2.0 4.0 0.00 0.04 0.04 39 1013.0
20260502221708 60 211 2.0 6.0 0.00 0.04 0.04 39 1013.1
20260502221205 60 149 3.0 4.0 0.00 0.04 0.04 40 1013.0
20260502220701 60 175 1.0 5.0 0.00 0.04 0.04 38 1013.3
20260502220157 60 230 1.0 5.0 0.00 0.04 0.04 37 1013.4
20260502215654 61 142 3.0 5.0 0.00 0.04 0.04 38 1013.4
20260502215151 61 259 0.0 3.0 0.00 0.04 0.04 38 1013.3
20260502214649 60 187 1.0 4.0 0.00 0.04 0.04 37 1013.2
20260502214146 61 163 4.0 6.0 0.00 0.04 0.04 37 1013.5
20260502213643 61 185 4.0 5.0 0.00 0.04 0.04 40 1013.2
20260502213140 61 210 2.0 4.0 0.00 0.04 0.04 37 1013.3
20260502212639 61 180 0.0 5.0 0.00 0.04 0.04 37 1013.2
20260502212137 61 99 4.0 5.0 0.00 0.04 0.04 38 1013.2
20260502211632 62 200 4.0 4.0 0.00 0.04 0.04 38 1013.4
20260502211129 61 189 1.0 3.0 0.00 0.04 0.04 38 1013.2
20260502210627 60 119 1.0 3.0 0.00 0.04 0.04 37 1013.1
20260502210123 60 165 4.0 4.0 0.00 0.04 0.04 37 1013.0
20260502205620 60 158 3.0 5.0 0.00 0.04 0.04 39 1013.1
20260502205111 60 215 1.0 3.0 0.00 0.04 0.04 40 1013.0
20260502204608 60 103 3.0 3.0 0.00 0.04 0.04 38 1013.1
20260502204106 60 176 3.0 4.0 0.00 0.04 0.04 38 1013.0
20260502203603 61 148 3.0 4.0 0.00 0.04 0.04 39 1013.2
20260502203100 61 158 3.0 3.0 0.00 0.04 0.04 39 1013.2
20260502202555 61 177 3.0 5.0 0.00 0.04 0.04 38 1013.3
20260502202054 62 184 2.0 7.0 0.00 0.04 0.04 35 1013.3
20260502201550 62 119 2.0 4.0 0.00 0.04 0.04 37 1013.4
20260502201047 61 166 1.0 3.0 0.00 0.04 0.04 40 1013.3
20260502200542 61 152 2.0 3.0 0.00 0.04 0.04 36 1013.4
20260502200040 61 184 2.0 8.0 0.00 0.04 0.04 37 1013.3
20260502195538 61 164 3.0 4.0 0.00 0.04 0.04 39 1013.3
20260502195033 61 164 10.0 10.0 0.00 0.04 0.04 37 1013.1
20260502194530 61 258 0.0 5.0 0.00 0.04 0.04 39 1013.5
20260502194026 60 198 1.0 5.0 0.00 0.04 0.04 40 1013.4
20260502193524 61 164 4.0 5.0 0.00 0.04 0.04 38 1013.6
20260502193021 60 188 3.0 4.0 0.00 0.04 0.04 38 1013.6